Portada
METAR-TAF:

METAR-TAF

Aeroports :

South St. Paul Municipal Airport (Richard E. Fleming Field)

South St. Paul, Minnesota, Estats Units d'Amèrica

latitud: 44-51-26N, longitud: 093-01-58W, altitud: 250 m

Observació

L'informe es va fer fa 14 minuts, a les 11:35 UTC
Vent 9 kt del Oest amb ràfegues de 15 kt
Temperatura 6°C
Humitat 61%
Pressió 1014 hPa
Visibilitat: 16.1 km
Cel clar

METAR: KSGS 161135Z AUTO 26009G15KT 10SM CLR 06/M01 A2994 RMK AO2 T00591015

Hora: 06:49 (11:49 UTC)


TAF: manca

Observacions i pronòstics meteorològics de més de 4000 aeroports (METAR i TAF).

Les estacions disponibles són els punts grocs i vermells al mapa.

Posi el ratolí al punt desitjat per veure el nom de l'estació.

Feu clic per veure les observacions i els pronòstics meteorològics.

Per canviar el mapa: feu clic els botons verds amb una creu de color negre per apropar; al botó verd amb un guió per allunyar la imatge; o en les fletxes verdes per a mapes adjacents.


METAR-TAF: